This is the latest recevied weather packets stored in our database for station/object EA3EH-1. If no packets are shown the sender has not sent any weather packets the latest 10 day(s).
| Time | Temp. | Humidity | Pressure | Rain* | Wind** | Luminosity | Snow |
|---|---|---|---|---|---|---|---|
| 1777805205 | 20.56° C | 25% | 1013 hPa | 0 mm | - | - | - |
| 1777803105 | 20° C | 31% | 1013 hPa | 0 mm | - | - | - |
| 1777801905 | 19.44° C | 32% | 1013 hPa | 0 mm | - | - | - |
| 1777800705 | 18.89° C | 33% | 1013 hPa | 0 mm | - | - | - |
| 1777800405 | 18.89° C | 34% | 1013 hPa | 0 mm | - | - | - |
| 1777800106 | 18.89° C | 34% | 1013 hPa | 0 mm | - | - | - |
| 1777799205 | 18.33° C | 36% | 1013 hPa | 0 mm | - | - | - |
| 1777798905 | 18.33° C | 36% | 1013 hPa | 0 mm | - | - | - |
| 1777797705 | 17.78° C | 38% | 1013 hPa | 0 mm | - | - | - |
| 1777796805 | 17.22° C | 39% | 1013 hPa | 0 mm | - | - | - |
| 1777795905 | 16.67° C | 40% | 1013 hPa | 0 mm | - | - | - |
| 1777795605 | 16.67° C | 41% | 1013 hPa | 0 mm | - | - | - |
| 1777795305 | 16.67° C | 41% | 1013 hPa | 0 mm | - | - | - |
| 1777794407 | 16.11° C | 43% | 1013 hPa | 0 mm | - | - | - |
| 1777793807 | 16.11° C | 45% | 1013 hPa | 0 mm | - | - | - |
| 1777793206 | 15.56° C | 47% | 1013 hPa | 0 mm | - | - | - |
| 1777792905 | 15.56° C | 48% | 1013 hPa | 0 mm | - | - | - |
| 1777792006 | 15° C | 51% | 1013 hPa | 0 mm | - | - | - |
| 1777791106 | 14.44° C | 51% | 1013 hPa | 0 mm | - | - | - |
| 1777790806 | 14.44° C | 53% | 1013 hPa | 0 mm | - | - | - |
| 1777790508 | 13.89° C | 54% | 1013 hPa | 0 mm | - | - | - |
| 1777788706 | 12.78° C | 59% | 1013 hPa | 0 mm | - | - | - |
| 1777788106 | 12.78° C | 59% | 1013 hPa | 0 mm | - | - | - |
| 1777786908 | 12.78° C | 61% | 1013 hPa | 0 mm | - | - | - |
| 1777786608 | 12.78° C | 60% | 1013 hPa | 0 mm | - | - | - |
* Rain latest hour (hover to see other rain measurements)
** Current wind speed in m/s (hover to see current wind gust speed)